STARLINK-2169, 47752

Orbit data source: Space-Track

STARLINK-2169, 47752 is a payload satellite owned by SpaceX/Seattle (US) in LEO that was launched on Thu, 04 Mar 2021 UTC via an FALCON 9 launch vehicle from the Air Force Eastern Test Range (AFETR). Payload-class satellites include a variety of spacecraft equipped with specific instruments for various scientific and technological missions. These include communications satellites like Starlink; space stations such as the ISS; scientific satellites like the Hubble; Earth observation satellites from companies like Planet Labs, Umbra, and HawkEye 360; GPS; miniature CubeSats for education and research; and military/defense satellites.

Loading next visibility...
Identifier
47752, 2021-017AG
Orbit
LEO
Country
Flag of USUS
Related business
Manufacturer
SpaceX/Seattle
Mission
Partially operational Commercial Communications
Bus & Motor
STARLINK, Unknown motor
Mass
260 kg wet, ~248 kg dry
Launch date (UTC)
2021-03-04 (5 years ago)
Launch vehicle
FALCON 9
Launch site
Air Force Eastern Test Range (AFETR)
Object type
Payload
Rocket body
Debris
Shape & HBR
Box + 1 Pan, 10.1 m
Radar Cross Section
13.562 m², Large (>1 m²)

Expand to show TLE details & history
Last TLE update: 12 hours ago

TLE from 12 hours ago
0 STARLINK-2169
1 47752U 21017AG  26236.00002315  .00518570  12868-3  98115-3 0  9997
2 47752  53.1431 104.9685 0006028 233.9181 194.7801 16.00187445  6046
Epoch: 2026-08-24T00:00Z
TLE epoch observation values (Epoch: 2026-08-24T00:00:02.000Z)
Latitude
48.34268°
Longitude
-170.41196°
Altitude
283.19 km
Speed
7.741 km/s
True Right ascension
10h 47m 32s
True Declination
48° 09' 35"
Sunlit
Object was in daylight at epoch
Visualization orbit readout
Latitude
Unknown
Longitude
Unknown
Altitude
Unknown
Speed
Unknown
Apparent Right ascension
Unknown
Apparent Declination
Unknown
Sunlit
N/A
Visualization observer readout
Local Sidereal Time
02:48:19
Azimuth
Unknown
Elevation
Unknown
Doppler factor
Unknown
Orbital elements
Apogee altitude
278.176 km
Perigee altitude
270.156 km
Semi-major axis
6,652.303 km
Eccentricity
0.0006
Inclination
53.1431°
RAAN
104.9685°
Arg. of periapsis
233.9181°
True anomaly
194.76249°
Mean anomaly
194.7801°
Eccentric anomaly
194.77129°
Mean motion
4.00023 °/min
Orbital period
89.99 mins
BSTAR
0.00098115
Loading maneuver chart data...
Computing Atmospheric mass density...

Documentation

Showing up to 5 results
|